User: anonymous   Login
Location: Augirein
(42.9320°N, 0.9181°E)
Time: 08:46:50
(UTC+00:00)
Language:

Cosmos 2098 Rocket - Orbit

View from above orbital plane
View from above orbital plane
View from above satellite
View from above satellite

Ground track
Ground track

The orbit data is extracted from the following two-line orbital elements,

1 20775U 90078B   21265.09978675  .00001985  00000-0  94772-4 0  9998
2 20775  82.9285 205.3765 0564758 202.4418 155.1169 14.36372254571953
Epoch (UTC): 22 September 2021 02:23:41
Eccentricity: 0.0564758
inclination: 82.9285°
perigee height: 367 km
apogee height: 1174 km
right ascension of ascending node: 205.3765°
argument of perigee: 202.4418°
revolutions per day: 14.36372254
mean anomaly at epoch: 155.1169°
orbit number at epoch: 57195

The dashed part of the orbit path shows where the satellite is in the earth's shadow,  

DLR